Time,TemperatureF,DewpointF,PressureIn,WindDirection,WindDirectionDegrees,WindSpeedMPH,WindSpeedGustMPH,Humidity,HourlyPrecipIn,Conditions,Clouds,dailyrainin,SoftwareType,DateUTC
2013-06-14 00:00:00,68.5,64.0,29.98,ESE,119,4.0,5.0,86,0.00,,,0.00,weatherlink.com 1.10,2013-06-14 05:00:00,
2013-06-14 00:15:00,68.3,64.0,29.99,ESE,121,2.0,4.0,86,0.00,,,0.00,weatherlink.com 1.10,2013-06-14 05:15:00,
2013-06-14 00:30:00,68.2,64.0,30.00,ESE,121,0.0,1.0,86,0.00,,,0.00,weatherlink.com 1.10,2013-06-14 05:30:00,
2013-06-14 00:45:00,68.4,64.0,30.00,ESE,121,2.0,3.0,85,0.00,,,0.00,weatherlink.com 1.10,2013-06-14 05:45:00,
2013-06-14 01:00:00,68.5,64.0,30.00,ESE,121,0.0,2.0,85,0.00,,,0.00,weatherlink.com 1.10,2013-06-14 06:00:00,
2013-06-14 01:15:00,68.4,64.0,30.01,ESE,121,0.0,1.0,85,0.00,,,0.00,weatherlink.com 1.10,2013-06-14 06:15:00,
2013-06-14 01:30:00,67.8,64.0,30.02,ESE,120,0.0,0.0,86,0.00,,,0.00,weatherlink.com 1.10,2013-06-14 06:30:00,
2013-06-14 01:45:00,66.7,63.0,30.02,ESE,120,0.0,1.0,88,0.00,,,0.00,weatherlink.com 1.10,2013-06-14 06:45:00,
2013-06-14 02:00:00,65.7,63.0,30.02,ESE,120,0.0,0.0,90,0.00,,,0.00,weatherlink.com 1.10,2013-06-14 07:00:00,
2013-06-14 02:15:00,65.0,62.0,30.02,ESE,120,0.0,0.0,91,0.00,,,0.00,weatherlink.com 1.10,2013-06-14 07:15:00,
2013-06-14 02:30:00,65.3,63.0,30.02,ESE,120,0.0,1.0,92,0.00,,,0.00,weatherlink.com 1.10,2013-06-14 07:30:00,
2013-06-14 02:45:00,64.9,62.0,30.02,ESE,120,2.0,2.0,91,0.00,,,0.00,weatherlink.com 1.10,2013-06-14 07:45:00,
2013-06-14 03:00:00,64.3,62.0,30.01,ESE,121,3.0,4.0,92,0.00,,,0.00,weatherlink.com 1.10,2013-06-14 08:00:00,
2013-06-14 03:15:00,64.6,62.0,30.02,ESE,112,2.0,4.0,92,0.00,,,0.00,weatherlink.com 1.10,2013-06-14 08:15:00,
2013-06-14 03:30:00,65.1,62.0,30.01,ESE,111,2.0,4.0,90,0.00,,,0.00,weatherlink.com 1.10,2013-06-14 08:30:00,
2013-06-14 03:45:00,65.4,62.0,30.01,ESE,110,3.0,4.0,88,0.00,,,0.00,weatherlink.com 1.10,2013-06-14 08:45:00,
2013-06-14 04:00:00,65.3,62.0,30.01,ESE,109,1.0,4.0,88,0.00,,,0.00,weatherlink.com 1.10,2013-06-14 09:00:00,
2013-06-14 04:15:00,64.9,61.0,30.02,ESE,109,0.0,4.0,88,0.00,,,0.00,weatherlink.com 1.10,2013-06-14 09:15:00,
2013-06-14 04:30:00,64.4,61.0,30.02,ESE,109,2.0,4.0,89,0.00,,,0.00,weatherlink.com 1.10,2013-06-14 09:30:00,
2013-06-14 04:46:00,64.5,61.0,30.02,ESE,109,2.0,4.0,89,0.00,,,0.00,weatherlink.com 1.10,2013-06-14 09:46:00,
2013-06-14 05:01:00,64.5,61.0,30.02,ESE,109,3.0,4.0,89,0.00,,,0.00,weatherlink.com 1.10,2013-06-14 10:01:00,
2013-06-14 05:16:00,64.3,61.0,30.03,ESE,109,2.0,4.0,89,0.00,,,0.00,weatherlink.com 1.10,2013-06-14 10:16:00,
2013-06-14 05:31:00,64.0,61.0,30.03,ESE,109,2.0,4.0,89,0.00,,,0.00,weatherlink.com 1.10,2013-06-14 10:31:00,
2013-06-14 05:46:00,63.8,61.0,30.04,ESE,110,1.0,5.0,90,0.00,,,0.00,weatherlink.com 1.10,2013-06-14 10:46:00,
2013-06-14 06:01:00,63.8,61.0,30.04,ESE,108,2.0,4.0,90,0.00,,,0.00,weatherlink.com 1.10,2013-06-14 11:01:00,
2013-06-14 06:16:00,64.0,61.0,30.04,ESE,113,2.0,5.0,90,0.00,,,0.00,weatherlink.com 1.10,2013-06-14 11:16:00,
2013-06-14 06:31:00,64.6,61.0,30.04,ESE,115,2.0,4.0,89,0.00,,,0.00,weatherlink.com 1.10,2013-06-14 11:31:00,
2013-06-14 06:46:00,65.0,61.0,30.04,ESE,115,3.0,5.0,88,0.00,,,0.00,weatherlink.com 1.10,2013-06-14 11:46:00,
2013-06-14 07:01:00,65.5,62.0,30.04,ESE,123,3.0,8.0,88,0.00,,,0.00,weatherlink.com 1.10,2013-06-14 12:01:00,
2013-06-14 07:16:00,66.0,62.0,30.04,ESE,117,2.0,6.0,88,0.00,,,0.00,weatherlink.com 1.10,2013-06-14 12:16:00,
2013-06-14 07:31:00,66.8,63.0,30.04,ESE,121,2.0,5.0,87,0.00,,,0.00,weatherlink.com 1.10,2013-06-14 12:31:00,
2013-06-14 07:46:00,68.0,64.0,30.05,SE,127,3.0,6.0,86,0.00,,,0.00,weatherlink.com 1.10,2013-06-14 12:46:00,
2013-06-14 08:01:00,69.4,64.0,30.04,SE,130,3.0,7.0,84,0.00,,,0.00,weatherlink.com 1.10,2013-06-14 13:01:00,
2013-06-14 08:16:00,70.1,64.0,30.05,ESE,107,4.0,10.0,81,0.00,,,0.00,weatherlink.com 1.10,2013-06-14 13:16:00,
2013-06-14 08:31:00,71.1,65.0,30.05,South,181,6.0,11.0,80,0.00,,,0.00,weatherlink.com 1.10,2013-06-14 13:31:00,
2013-06-14 08:46:00,72.0,66.0,30.06,SE,142,3.0,7.0,80,0.00,,,0.00,weatherlink.com 1.10,2013-06-14 13:46:00,
2013-06-14 09:01:00,73.0,66.0,30.06,SE,140,1.0,6.0,79,0.00,,,0.00,weatherlink.com 1.10,2013-06-14 14:01:00,
2013-06-14 09:16:00,73.3,66.0,30.06,SSE,162,0.0,9.0,79,0.00,,,0.00,weatherlink.com 1.10,2013-06-14 14:16:00,
2013-06-14 09:31:00,74.2,66.0,30.06,ESE,119,1.0,10.0,76,0.00,,,0.00,weatherlink.com 1.10,2013-06-14 14:31:00,
2013-06-14 09:46:00,74.8,65.0,30.05,South,175,2.0,11.0,72,0.00,,,0.00,weatherlink.com 1.10,2013-06-14 14:46:00,
2013-06-14 10:01:00,75.5,67.0,30.05,SSE,155,7.0,11.0,74,0.00,,,0.00,weatherlink.com 1.10,2013-06-14 15:01:00,
2013-06-14 10:16:00,76.0,66.0,30.05,SSE,164,5.0,13.0,70,0.00,,,0.00,weatherlink.com 1.10,2013-06-14 15:16:00,
2013-06-14 10:31:00,76.7,66.0,30.05,SW,234,4.0,13.0,70,0.00,,,0.00,weatherlink.com 1.10,2013-06-14 15:31:00,
2013-06-14 10:46:00,77.7,67.0,30.05,SSE,150,4.0,7.0,69,0.00,,,0.00,weatherlink.com 1.10,2013-06-14 15:46:00,
2013-06-14 11:01:00,78.4,66.0,30.04,SE,146,4.0,8.0,65,0.00,,,0.00,weatherlink.com 1.10,2013-06-14 16:01:00,
2013-06-14 11:16:00,78.9,66.0,30.04,SSE,159,5.0,10.0,64,0.00,,,0.00,weatherlink.com 1.10,2013-06-14 16:16:00,
2013-06-14 11:31:00,79.2,66.0,30.04,South,177,5.0,11.0,64,0.00,,,0.00,weatherlink.com 1.10,2013-06-14 16:31:00,
2013-06-14 11:46:00,79.1,66.0,30.05,SW,235,5.0,11.0,64,0.00,,,0.00,weatherlink.com 1.10,2013-06-14 16:46:00,
2013-06-14 12:01:00,79.2,65.0,30.05,SSE,160,2.0,12.0,63,0.00,,,0.00,weatherlink.com 1.10,2013-06-14 17:01:00,
2013-06-14 12:16:00,80.4,66.0,30.05,SE,139,8.0,11.0,61,0.00,,,0.00,weatherlink.com 1.10,2013-06-14 17:16:00,
2013-06-14 12:31:00,80.9,67.0,30.05,SE,146,6.0,10.0,62,0.00,,,0.00,weatherlink.com 1.10,2013-06-14 17:31:00,
2013-06-14 12:46:00,82.0,67.0,30.05,SSW,193,5.0,8.0,60,0.00,,,0.00,weatherlink.com 1.10,2013-06-14 17:46:00,
2013-06-14 13:01:00,82.2,67.0,30.04,SSE,152,4.0,11.0,60,0.00,,,0.00,weatherlink.com 1.10,2013-06-14 18:01:00,
2013-06-14 13:16:00,82.6,68.0,30.03,SSE,164,5.0,10.0,61,0.00,,,0.00,weatherlink.com 1.10,2013-06-14 18:16:00,
2013-06-14 13:31:00,82.8,67.0,30.03,SSW,205,5.0,11.0,59,0.00,,,0.00,weatherlink.com 1.10,2013-06-14 18:31:00,
2013-06-14 13:46:00,82.3,66.0,30.04,SSE,147,3.0,10.0,59,0.00,,,0.00,weatherlink.com 1.10,2013-06-14 18:46:00,
2013-06-14 14:01:00,82.3,67.0,30.03,SE,135,6.0,9.0,60,0.00,,,0.00,weatherlink.com 1.10,2013-06-14 19:01:00,
2013-06-14 14:16:00,82.7,68.0,30.02,SSE,166,3.0,10.0,62,0.00,,,0.00,weatherlink.com 1.10,2013-06-14 19:16:00,
2013-06-14 14:31:00,82.9,68.0,30.02,ESE,114,5.0,9.0,61,0.00,,,0.00,weatherlink.com 1.10,2013-06-14 19:31:00,
2013-06-14 14:46:00,84.1,70.0,30.02,SE,142,3.0,8.0,62,0.00,,,0.00,weatherlink.com 1.10,2013-06-14 19:46:00,
2013-06-14 15:01:00,84.8,68.0,30.01,South,191,2.0,7.0,58,0.00,,,0.00,weatherlink.com 1.10,2013-06-14 20:01:00,
2013-06-14 15:16:00,84.8,69.0,30.00,ESE,106,4.0,10.0,59,0.00,,,0.00,weatherlink.com 1.10,2013-06-14 20:16:00,
2013-06-14 15:31:00,85.1,70.0,30.00,South,183,3.0,8.0,60,0.00,,,0.00,weatherlink.com 1.10,2013-06-14 20:31:00,
2013-06-14 15:47:00,84.8,69.0,30.00,SE,128,2.0,9.0,59,0.00,,,0.00,weatherlink.com 1.10,2013-06-14 20:47:00,
2013-06-14 16:02:00,84.5,69.0,30.00,East,98,5.0,10.0,60,0.00,,,0.00,weatherlink.com 1.10,2013-06-14 21:02:00,
2013-06-14 16:17:00,84.3,69.0,30.00,SE,144,4.0,9.0,60,0.00,,,0.00,weatherlink.com 1.10,2013-06-14 21:17:00,
2013-06-14 16:32:00,84.5,68.0,29.99,ESE,112,7.0,7.0,58,0.00,,,0.00,weatherlink.com 1.10,2013-06-14 21:32:00,
2013-06-14 16:47:00,84.5,70.0,29.98,SSE,150,5.0,10.0,61,0.00,,,0.00,weatherlink.com 1.10,2013-06-14 21:47:00,
2013-06-14 17:02:00,84.0,69.0,29.98,SE,134,5.0,10.0,60,0.00,,,0.00,weatherlink.com 1.10,2013-06-14 22:02:00,
2013-06-14 17:17:00,84.4,68.0,29.98,SE,124,3.0,9.0,59,0.00,,,0.00,weatherlink.com 1.10,2013-06-14 22:17:00,
2013-06-14 17:32:00,84.4,68.0,29.98,ESE,109,5.0,7.0,59,0.00,,,0.00,weatherlink.com 1.10,2013-06-14 22:32:00,
2013-06-14 17:47:00,84.1,69.0,29.98,ESE,103,9.0,11.0,61,0.00,,,0.00,weatherlink.com 1.10,2013-06-14 22:47:00,
2013-06-14 18:02:00,83.5,69.0,29.97,ENE,75,8.0,12.0,62,0.00,,,0.00,weatherlink.com 1.10,2013-06-14 23:02:00,
2013-06-14 18:17:00,82.5,70.0,29.96,ESE,113,5.0,11.0,65,0.00,,,0.00,weatherlink.com 1.10,2013-06-14 23:17:00,
2013-06-14 18:32:00,81.8,69.0,29.96,SE,138,3.0,10.0,66,0.00,,,0.00,weatherlink.com 1.10,2013-06-14 23:32:00,
2013-06-14 18:47:00,81.2,68.0,29.95,SSE,148,9.0,10.0,65,0.00,,,0.00,weatherlink.com 1.10,2013-06-14 23:47:00,
2013-06-14 19:02:00,80.8,69.0,29.96,SE,140,4.0,9.0,67,0.00,,,0.00,weatherlink.com 1.10,2013-06-15 00:02:00,
2013-06-14 19:17:00,80.1,68.0,29.96,ESE,122,10.0,10.0,66,0.00,,,0.00,weatherlink.com 1.10,2013-06-15 00:17:00,
2013-06-14 19:32:00,79.4,67.0,29.97,ESE,115,2.0,9.0,67,0.00,,,0.00,weatherlink.com 1.10,2013-06-15 00:32:00,
2013-06-14 19:47:00,79.2,67.0,29.98,ESE,106,4.0,8.0,67,0.00,,,0.00,weatherlink.com 1.10,2013-06-15 00:47:00,
2013-06-14 20:02:00,77.5,67.0,29.98,ESE,121,2.0,5.0,71,0.00,,,0.00,weatherlink.com 1.10,2013-06-15 01:02:00,
2013-06-14 20:17:00,76.6,67.0,29.97,SE,127,3.0,5.0,73,0.00,,,0.00,weatherlink.com 1.10,2013-06-15 01:17:00,
2013-06-14 20:32:00,75.8,67.0,29.98,ESE,123,4.0,7.0,75,0.00,,,0.00,weatherlink.com 1.10,2013-06-15 01:32:00,
2013-06-14 20:47:00,75.2,67.0,29.98,SE,142,3.0,7.0,76,0.00,,,0.00,weatherlink.com 1.10,2013-06-15 01:47:00,
2013-06-14 21:02:00,74.6,67.0,29.98,ESE,123,3.0,7.0,78,0.00,,,0.00,weatherlink.com 1.10,2013-06-15 02:02:00,
2013-06-14 21:17:00,73.9,67.0,29.98,SE,131,4.0,7.0,79,0.00,,,0.00,weatherlink.com 1.10,2013-06-15 02:17:00,
2013-06-14 21:32:00,73.8,67.0,29.99,SE,130,6.0,7.0,79,0.00,,,0.00,weatherlink.com 1.10,2013-06-15 02:32:00,
2013-06-14 21:47:00,74.2,67.0,29.99,SSE,148,4.0,10.0,77,0.00,,,0.00,weatherlink.com 1.10,2013-06-15 02:47:00,
2013-06-14 22:02:00,74.4,66.0,30.00,SSE,147,6.0,11.0,76,0.00,,,0.00,weatherlink.com 1.10,2013-06-15 03:02:00,
2013-06-14 22:17:00,74.0,66.0,30.00,SSE,164,4.0,10.0,77,0.00,,,0.00,weatherlink.com 1.10,2013-06-15 03:17:00,
2013-06-14 22:32:00,73.3,66.0,30.01,SE,135,2.0,9.0,78,0.00,,,0.00,weatherlink.com 1.10,2013-06-15 03:32:00,
2013-06-14 22:47:00,72.9,66.0,30.01,SE,132,8.0,8.0,79,0.00,,,0.00,weatherlink.com 1.10,2013-06-15 03:47:00,
2013-06-14 23:02:00,72.7,66.0,30.01,SE,144,6.0,10.0,79,0.00,,,0.00,weatherlink.com 1.10,2013-06-15 04:02:00,
2013-06-14 23:17:00,72.5,66.0,30.01,SE,140,6.0,8.0,79,0.00,,,0.00,weatherlink.com 1.10,2013-06-15 04:17:00,
2013-06-14 23:32:00,72.4,66.0,30.01,SSE,167,6.0,9.0,80,0.00,,,0.00,weatherlink.com 1.10,2013-06-15 04:32:00,
2013-06-14 23:47:00,72.2,66.0,30.02,South,182,3.0,10.0,81,0.00,,,0.00,weatherlink.com 1.10,2013-06-15 04:47:00,